Greenville, MS

4:06 AM CDT on May 29, 2017 (GMT -0500)
Mid Delta Regional

Weather History for KGLH - March, 2013

Change the Weather History Date:

Sunday, March 24, 2013

  Actual Average Record
Temperature  
Mean Temperature 44 °F 57 °F  
Max Temperature 52 °F 68 °F 91 °F (1929)
Min Temperature 36 °F 46 °F 28 °F (1974)
Degree Days  
Heating Degree Days 21 9  
Month to date heating degree days 370 279  
Since 1 July heating degree days 2373 2588  
Cooling Degree Days 0 1  
Month to date cooling degree days 2 10  
Year to date cooling degree days 12 15  
Moisture  
Dew Point 43 °F    
Average Humidity 77    
Maximum Humidity 100    
Minimum Humidity 53    
Precipitation  
Precipitation T in 0.17 in 3.03 in (1958)
Month to date precipitation 3.94 3.28  
Year to date precipitation 16.40 13.27  
Sea Level Pressure  
Sea Level Pressure 29.77 in    
Wind  
Wind Speed 20 mph (NW)    
Max Wind Speed 30 mph    
Max Gust Speed 40 mph    
Visibility 7 miles    
Events Rain    
T = Trace of Precipitation, MM = Missing Value Source: NWS Daily Summary

Daily Weather History Graph

Daily Weather History Graph

Search for Another Location

Airport or City:

Trip Planner

Search our weather history database for the weather conditions in past years. The results will help you decide how hot, cold, wet, or windy it might be!

Date:

Astronomy

Mar. 24, 2013 Rise Set
Actual Time 7:01 AM CDT 7:18 PM CDT
Civil Twilight 6:37 AM CDT 7:43 PM CDT
Nautical Twilight 6:08 AM CDT 8:12 PM CDT
Astronomical Twilight 5:38 AM CDT 8:42 PM CDT
Moon 4:53 PM CDT (3/24) 5:05 AM CDT (3/24)
Length of Visible Light 13h 06m
Length of Day
12h 16m
Waxing Gibbous, 92% of the Moon is Illuminated
Mar 24
Waxing Gibbous
Mar 27
Full
Apr 2
Last Quarter
Apr 10
New
Apr 18
First Quarter

Hourly Weather History & Observations

Time (CDT) Temp. Windchill Dew Point Humidity Pressure Visibility Wind Dir Wind Speed Gust Speed Precip Events Conditions
12:53 AM 51.1 °F - 51.1 °F 100% 29.67 in 9.0 mi North - - 0.00 in   Overcast
1:53 AM 51.1 °F - 51.1 °F 100% 29.66 in 6.0 mi North - - N/A   Overcast
2:53 AM 51.1 °F - 50.0 °F 96% 29.65 in 5.0 mi North - - N/A   Overcast
3:05 AM 51.8 °F - 50.0 °F 94% 29.61 in 2.0 mi North - - N/A   Overcast
3:13 AM 51.8 °F - 51.8 °F 100% 29.61 in 1.2 mi North - - N/A   Overcast
3:24 AM 51.8 °F - 51.8 °F 100% 29.61 in 0.8 mi North - - N/A   Mist
3:53 AM 51.1 °F - 51.1 °F 100% 29.67 in 0.8 mi North - - N/A   Mist
4:10 AM 51.8 °F - 50.0 °F 94% 29.67 in 1.0 mi North - - N/A   Mist
4:53 AM 51.1 °F - 50.0 °F 96% 29.68 in 2.0 mi North - - N/A   Overcast
5:05 AM 51.8 °F - 50.0 °F 94% 29.62 in 1.8 mi North - - N/A   Overcast
5:25 AM 50.0 °F - 50.0 °F 100% 29.66 in 2.0 mi North - - N/A   Overcast
5:38 AM 50.0 °F - 50.0 °F 100% 29.66 in 1.5 mi North - - N/A   Overcast
5:53 AM 50.0 °F - 50.0 °F 100% 29.71 in 1.0 mi North - - N/A   Overcast
6:41 AM 50.0 °F - 48.2 °F 94% 29.70 in 2.5 mi North - - N/A   Overcast
6:49 AM 48.2 °F - 48.2 °F 100% 29.70 in 6.0 mi North - - N/A   Overcast
6:53 AM 48.9 °F - 48.9 °F 100% 29.72 in 7.0 mi North - - N/A   Overcast
7:01 AM 48.2 °F - 48.2 °F 100% 29.70 in 7.0 mi North - - N/A   Overcast
7:31 AM 50.0 °F - 48.2 °F 94% 29.69 in 3.0 mi North - - N/A   Overcast
7:53 AM 50.0 °F - 48.9 °F 96% 29.72 in 6.0 mi North - - N/A   Overcast
8:30 AM 50.0 °F - 48.2 °F 94% 29.68 in 10.0 mi North - - N/A   Overcast
8:53 AM 50.0 °F - 48.0 °F 93% 29.73 in 10.0 mi North - - N/A   Overcast
9:25 AM 50.0 °F - 46.4 °F 87% 29.71 in 8.0 mi North - - N/A   Overcast
9:53 AM 50.0 °F - 46.9 °F 89% 29.75 in 8.0 mi North - - 0.00 in Rain Light Rain
10:18 AM 51.8 °F - 46.4 °F 82% 29.72 in 10.0 mi North - - 0.00 in   Overcast
10:37 AM 51.8 °F - 46.4 °F 82% 29.72 in 10.0 mi North - - 0.00 in   Overcast
10:51 AM 51.8 °F - 44.6 °F 76% 29.73 in 10.0 mi North - - 0.00 in   Mostly Cloudy
10:53 AM 52.0 °F - 44.1 °F 74% 29.75 in 10.0 mi North - - 0.00 in   Mostly Cloudy
11:19 AM 51.8 °F - 42.8 °F 71% 29.74 in 10.0 mi North - - N/A   Overcast
11:53 AM 52.0 °F - 37.9 °F 59% 29.80 in 10.0 mi North - - N/A   Scattered Clouds
12:53 PM 48.0 °F - 36.0 °F 63% 29.82 in 10.0 mi North - - N/A   Overcast
1:53 PM 46.0 °F - 34.0 °F 63% 29.84 in 10.0 mi North - - N/A   Overcast
2:53 PM 48.9 °F - 34.0 °F 56% 29.84 in 10.0 mi North - - N/A   Overcast
3:53 PM 48.0 °F - 32.0 °F 54% 29.85 in 10.0 mi WNW 21.9 mph 35.7 mph N/A   Mostly Cloudy
4:53 PM 48.9 °F - 32.0 °F 52% 29.89 in 10.0 mi NW 24.2 mph 32.2 mph N/A   Overcast
5:53 PM 46.9 °F - 30.9 °F 54% 29.92 in 10.0 mi NW 19.6 mph 33.4 mph N/A   Overcast
6:53 PM 44.6 °F 35.7 °F 28.4 °F 53% 29.94 in 10.0 mi WNW 24.2 mph 31.1 mph N/A   Overcast
7:53 PM 43.0 °F 34.0 °F 30.0 °F 60% 30.00 in 10.0 mi WNW 21.9 mph 28.8 mph N/A   Overcast
8:53 PM 41.0 °F 31.9 °F 28.9 °F 62% 30.03 in 10.0 mi NW 19.6 mph 26.5 mph N/A   Mostly Cloudy
9:53 PM 39.9 °F 31.8 °F 28.9 °F 65% 30.05 in 10.0 mi NW 15.0 mph 23.0 mph N/A   Clear
10:53 PM 39.0 °F 31.0 °F 28.0 °F 65% 30.07 in 10.0 mi NW 13.8 mph 23.0 mph N/A   Clear
11:53 PM 37.9 °F 28.9 °F 27.0 °F 65% 30.08 in 10.0 mi NW 16.1 mph - N/A   Clear